2024/01/23 00:00:00, 6.5,-2.8
2024/01/23 00:10:00, 6.5,-3.1
2024/01/23 00:20:00, 6.5,-3.3
2024/01/23 00:30:00, 6.5,-3.4
2024/01/23 00:40:00, 6.5,-3.4
2024/01/23 00:50:00, 6.4,-3.8
2024/01/23 01:00:00, 6.5,-3.9
2024/01/23 01:10:00, 6.5,-3.5
2024/01/23 01:20:00, 6.5,-3.5
2024/01/23 01:30:00, 6.5,-3.8
2024/01/23 01:40:00, 6.5,-3.8
2024/01/23 01:50:00, 6.6,-4.0
2024/01/23 02:00:00, 6.6,-4.0
2024/01/23 02:10:00, 6.5,-4.1
2024/01/23 02:20:00, 6.5,-4.3
2024/01/23 02:30:00, 6.6,-4.5
2024/01/23 02:40:00, 6.5,-4.5
2024/01/23 02:50:00, 6.4,-4.7
2024/01/23 03:00:00, 6.6,-4.7
2024/01/23 03:10:00, 6.6,-4.9
2024/01/23 03:20:00, 6.6,-4.8
2024/01/23 03:30:00, 6.6,-4.9
2024/01/23 03:40:00, 6.5,-4.9
2024/01/23 03:50:00, 6.5,-4.9
2024/01/23 04:00:00, 6.5,-4.8
2024/01/23 04:10:00, 6.5,-5.3
2024/01/23 04:20:00, 6.6,-5.2
2024/01/23 04:30:00, 6.6,-5.1
2024/01/23 04:40:00, 6.6,-5.2
2024/01/23 04:50:00, 6.6,-5.3
2024/01/23 05:00:00, 6.6,-4.6
2024/01/23 05:10:00, 6.6,-5.4
2024/01/23 05:20:00, 6.6,-5.4
2024/01/23 05:30:00, 6.5,-5.2
2024/01/23 05:40:00, 6.5,-5.1
2024/01/23 05:50:00, 6.5,-5.3
2024/01/23 06:00:00, 6.5,-5.3
2024/01/23 06:10:00, 6.5,-5.5
2024/01/23 06:20:00, 6.5,-5.4
2024/01/23 06:30:00, 6.5,-5.6
2024/01/23 06:40:00, 6.5,-5.3
2024/01/23 06:50:00, 6.5,-5.4
2024/01/23 07:00:00, 6.5,-5.4
2024/01/23 07:10:00, 6.5,-5.7
2024/01/23 07:20:00, 6.5,-5.5
2024/01/23 07:30:00, 6.5,-5.3
2024/01/23 07:40:00, 6.5,-5.5
2024/01/23 07:50:00, 6.5,-5.7
2024/01/23 08:00:00, 6.5,-5.4
2024/01/23 08:10:00, 6.5,-5.1
2024/01/23 08:20:00, 6.6,-5.1
2024/01/23 08:30:00, 6.6,-4.8
2024/01/23 08:40:00, 6.7,-4.7
2024/01/23 08:50:00, 6.5,-4.3
2024/01/23 09:00:00, 6.6,-3.4
2024/01/23 09:10:00, 6.5,-3.8
2024/01/23 09:20:00, 6.4,-4.3
2024/01/23 09:30:00, 6.4,-4.2
2024/01/23 09:40:00, 6.4,-4.5
2024/01/23 09:50:00, 6.3,-3.8
2024/01/23 10:00:00, 6.4,-3.8
2024/01/23 10:10:00, 6.4,-3.4
2024/01/23 10:20:00, 6.5,-3.2
2024/01/23 10:30:00, 6.5,-3.5
2024/01/23 10:40:00, 6.6,-3.5
2024/01/23 10:50:00, 6.7,-3.1
2024/01/23 11:00:00, 6.8,-2.8
2024/01/23 11:10:00, 6.8,-3.2
2024/01/23 11:20:00, 6.6,-3.4
2024/01/23 11:30:00, 6.6,-3.7
2024/01/23 11:40:00, 6.6,-3.6
2024/01/23 11:50:00, 6.7,-3.4
2024/01/23 12:00:00, 6.8,-3.6
2024/01/23 12:10:00, 6.9,-2.8
2024/01/23 12:20:00, 6.9,-3.2
2024/01/23 12:30:00, 6.7,-3.4
2024/01/23 12:40:00, 7.0,-2.9
2024/01/23 12:50:00, 7.1,-2.8
2024/01/23 13:00:00, 7.1,-2.6
2024/01/23 13:10:00, 7.0,-2.8
2024/01/23 13:20:00, 6.9,-3.1
2024/01/23 13:30:00, 7.0,-3.1
2024/01/23 13:40:00, 7.0,-3.4
2024/01/23 13:50:00, 7.1,-2.8
2024/01/23 14:00:00, 7.1,-3.0
2024/01/23 14:10:00, 7.0,-2.6
2024/01/23 14:20:00, 6.9,-3.1
2024/01/23 14:30:00, 7.3,-3.3
2024/01/23 14:40:00, 7.6,-3.6
2024/01/23 14:50:00, 7.4,-3.4
2024/01/23 15:00:00, 7.3,-3.8
2024/01/23 15:10:00, 7.3,-4.2
2024/01/23 15:20:00, 7.2,-4.7
2024/01/23 15:30:00, 7.3,-4.0
2024/01/23 15:40:00, 7.3,-4.4
2024/01/23 15:50:00, 7.3,-4.5
2024/01/23 16:00:00, 7.3,-4.3
2024/01/23 16:10:00, 7.3,-5.0
2024/01/23 16:20:00, 7.3,-4.5
2024/01/23 16:30:00, 7.3,-4.6
2024/01/23 16:40:00, 7.3,-4.8
2024/01/23 16:50:00, 7.3,-4.7
2024/01/23 17:00:00, 7.2,-4.9
2024/01/23 17:10:00, 7.2,-5.2
2024/01/23 17:20:00, 7.3,-5.6
2024/01/23 17:30:00, 7.2,-5.5
2024/01/23 17:40:00, 7.3,-5.6
2024/01/23 17:50:00, 7.3,-5.6
2024/01/23 18:00:00, 7.2,-5.9
2024/01/23 18:10:00, 7.2,-5.7
2024/01/23 18:20:00, 7.2,-6.0
2024/01/23 18:30:00, 7.1,-5.9
2024/01/23 18:40:00, 7.2,-5.4
2024/01/23 18:50:00, 7.2,-6.2
2024/01/23 19:00:00, 7.1,-6.2
2024/01/23 19:10:00, 7.1,-6.2
2024/01/23 19:20:00, 7.1,-6.2
2024/01/23 19:30:00, 7.1,-6.3
2024/01/23 19:40:00, 7.1,-6.6
2024/01/23 19:50:00, 7.1,-6.6
2024/01/23 20:00:00, 7.0,-6.8
2024/01/23 20:10:00, 7.0,-6.5
2024/01/23 20:20:00, 7.0,-6.6
2024/01/23 20:30:00, 6.9,-6.5
2024/01/23 20:40:00, 7.0,-6.5
2024/01/23 20:50:00, 6.9,-6.9
2024/01/23 21:00:00, 6.9,-6.8
2024/01/23 21:10:00, 6.9,-6.8
2024/01/23 21:20:00, 6.8,-7.1
2024/01/23 21:30:00, 6.7,-7.3
2024/01/23 21:40:00, 6.7,-7.0
2024/01/23 21:50:00, 6.7,-7.3
2024/01/23 22:00:00, 6.7,-7.3
2024/01/23 22:10:00, 6.7,-7.6
2024/01/23 22:20:00, 6.7,-7.7
2024/01/23 22:30:00, 6.6,-7.5
2024/01/23 22:40:00, 6.6,-7.6
2024/01/23 22:50:00, 6.6,-7.8
2024/01/23 23:00:00, 6.6,-7.7
2024/01/23 23:10:00, 6.7,-7.8
2024/01/23 23:20:00, 6.6,-7.9
2024/01/23 23:30:00, 6.6,-8.2
2024/01/23 23:40:00, 6.6,-7.7
2024/01/23 23:50:00, 6.6,-7.9
